,,Stat5,,Stat1,,Stat2,,Stat3,,Stat4,,Wind1,,Wind1,
time,status,PA1M_AVG,status,PR1M_SUM,status,RH1M_AVG,status,SR1M_AVG,status,TA1M_AVG,status,W1dAve1m,status,W1sAve1m,
2000-08-23, 00:00:00,VALID,917.617,VALID,0,VALID,98.0852,VALID,-0.0169808,VALID,19.235,VALID,13,VALID,0,
2000-08-23, 00:01:00,VALID,917.617,VALID,0,VALID,98.0572,VALID,0,VALID,19.2415,VALID,4,VALID,0,
2000-08-23, 00:02:00,VALID,917.636,VALID,0,VALID,97.972,VALID,0,VALID,19.2516,VALID,10,VALID,0,
2000-08-23, 00:03:00,VALID,917.642,VALID,0,VALID,97.8881,VALID,0,VALID,19.2444,VALID,344,VALID,0,
2000-08-23, 00:04:00,VALID,917.66,VALID,0,VALID,97.864,VALID,0.0339617,VALID,19.2382,VALID,304,VALID,0,
2000-08-23, 00:05:00,VALID,917.667,VALID,0,VALID,97.8703,VALID,0.0169808,VALID,19.2447,VALID,293,VALID,0,
2000-08-23, 00:06:00,VALID,917.655,VALID,0,VALID,97.9072,VALID,0,VALID,19.2186,VALID,293,VALID,0,
2000-08-23, 00:07:00,VALID,917.64,VALID,0,VALID,97.9708,VALID,0,VALID,19.2154,VALID,293,VALID,0,
2000-08-23, 00:08:00,VALID,917.623,VALID,0,VALID,98.0407,VALID,0,VALID,19.2218,VALID,293,VALID,0,
2000-08-23, 00:09:00,VALID,917.596,VALID,0,VALID,98.0903,VALID,0,VALID,19.2253,VALID,293,VALID,0,
2000-08-23, 00:10:00,VALID,917.588,VALID,0,VALID,98.1539,VALID,-0.0169808,VALID,19.2188,VALID,293,VALID,0,
2000-08-23, 00:11:00,VALID,917.595,VALID,0,VALID,98.178,VALID,-0.0169808,VALID,19.2159,VALID,293,VALID,0,
2000-08-23, 00:12:00,VALID,917.598,VALID,0,VALID,98.1895,VALID,-0.0169808,VALID,19.1965,VALID,293,VALID,0,
2000-08-23, 00:13:00,VALID,917.599,VALID,0,VALID,98.2404,VALID,-0.0169808,VALID,19.1768,VALID,302,VALID,0,
2000-08-23, 00:14:00,VALID,917.583,VALID,0,VALID,98.3205,VALID,0,VALID,19.1669,VALID,303,VALID,0,
2000-08-23, 00:15:00,VALID,917.569,VALID,0,VALID,98.3777,VALID,-0.0169808,VALID,19.1612,VALID,303,VALID,0,
2000-08-23, 00:16:00,VALID,917.56,VALID,0,VALID,98.4578,VALID,0,VALID,19.1607,VALID,304,VALID,0,
2000-08-23, 00:17:00,VALID,917.539,VALID,0,VALID,98.5163,VALID,0.0169808,VALID,19.1701,VALID,318,VALID,0,
2000-08-23, 00:18:00,VALID,917.55,VALID,0,VALID,98.5672,VALID,-0.0169808,VALID,19.1803,VALID,318,VALID,0,
2000-08-23, 00:19:00,VALID,917.558,VALID,0,VALID,98.6218,VALID,0.0169808,VALID,19.1706,VALID,320,VALID,0,
2000-08-23, 00:20:00,VALID,917.56,VALID,0,VALID,98.6625,VALID,0,VALID,19.187,VALID,326,VALID,0,
2000-08-23, 00:21:00,VALID,917.544,VALID,0,VALID,98.6651,VALID,-0.0169808,VALID,19.1801,VALID,326,VALID,0,
2000-08-23, 00:22:00,VALID,917.53,VALID,0,VALID,98.6498,VALID,0.0339617,VALID,19.1602,VALID,329,VALID,0,
2000-08-23, 00:23:00,VALID,917.526,VALID,0,VALID,98.6511,VALID,0.0169808,VALID,19.1838,VALID,73,VALID,0,
2000-08-23, 00:24:00,VALID,917.523,VALID,0,VALID,98.6574,VALID,0.0169808,VALID,19.1642,VALID,87,VALID,0,
2000-08-23, 00:25:00,VALID,917.525,VALID,0,VALID,98.6574,VALID,0,VALID,19.1711,VALID,87,VALID,0,
2000-08-23, 00:26:00,VALID,917.49,VALID,0,VALID,98.6816,VALID,0,VALID,19.1607,VALID,87,VALID,0,
2000-08-23, 00:27:00,VALID,917.467,VALID,0,VALID,98.6803,VALID,0,VALID,19.154,VALID,88,VALID,0,
2000-08-23, 00:28:00,VALID,917.453,VALID,0,VALID,98.6549,VALID,-0.0169808,VALID,19.155,VALID,92,VALID,0,
2000-08-23, 00:29:00,VALID,917.428,VALID,0,VALID,98.6396,VALID,0,VALID,19.1348,VALID,92,VALID,0,
2000-08-23, 00:30:00,VALID,917.425,VALID,0,VALID,98.6587,VALID,-0.0169808,VALID,19.1351,VALID,92,VALID,0,
2000-08-23, 00:31:00,VALID,917.422,VALID,0,VALID,98.6714,VALID,0,VALID,19.1351,VALID,93,VALID,0,
2000-08-23, 00:32:00,VALID,917.417,VALID,0,VALID,98.693,VALID,0,VALID,19.1316,VALID,93,VALID,0,
2000-08-23, 00:33:00,VALID,917.411,VALID,0,VALID,98.7007,VALID,0,VALID,19.1418,VALID,93,VALID,0,
2000-08-23, 00:34:00,VALID,917.395,VALID,0,VALID,98.7287,VALID,-0.0169808,VALID,19.1547,VALID,88,VALID,0,
2000-08-23, 00:35:00,VALID,917.382,VALID,0,VALID,98.7325,VALID,0,VALID,19.1483,VALID,91,VALID,0,
2000-08-23, 00:36:00,VALID,917.372,VALID,0,VALID,98.7299,VALID,0,VALID,19.1443,VALID,88,VALID,0,
2000-08-23, 00:37:00,VALID,917.365,VALID,0,VALID,98.7236,VALID,0,VALID,19.1416,VALID,88,VALID,0,
2000-08-23, 00:38:00,VALID,917.342,VALID,0,VALID,98.7058,VALID,0,VALID,19.1348,VALID,80,VALID,0,
2000-08-23, 00:39:00,VALID,917.309,VALID,0,VALID,98.7134,VALID,0,VALID,19.1314,VALID,81,VALID,0,
2000-08-23, 00:40:00,VALID,917.279,VALID,0,VALID,98.7159,VALID,-0.0339617,VALID,19.1353,VALID,79,VALID,0,
2000-08-23, 00:41:00,VALID,917.253,VALID,0,VALID,98.688,VALID,0,VALID,19.1289,VALID,59,VALID,0.0273438,
2000-08-23, 00:42:00,VALID,917.242,VALID,0,VALID,98.6867,VALID,0,VALID,19.1157,VALID,53,VALID,0.44371,
2000-08-23, 00:43:00,VALID,917.227,VALID,0,VALID,98.6956,VALID,0.0169808,VALID,19.1159,VALID,49,VALID,0.38014,
2000-08-23, 00:44:00,VALID,917.219,VALID,0,VALID,98.7045,VALID,0,VALID,19.1063,VALID,46,VALID,0,
2000-08-23, 00:45:00,VALID,917.199,VALID,0,VALID,98.7248,VALID,-0.0169808,VALID,19.1055,VALID,43,VALID,0,
2000-08-23, 00:46:00,VALID,917.188,VALID,0,VALID,98.7541,VALID,-0.0169808,VALID,19.1125,VALID,42,VALID,0,
2000-08-23, 00:47:00,VALID,917.168,VALID,0,VALID,98.7948,VALID,0,VALID,19.1157,VALID,42,VALID,0,
2000-08-23, 00:48:00,VALID,917.147,VALID,0,VALID,98.8037,VALID,-0.0509425,VALID,19.1323,VALID,42,VALID,0,
2000-08-23, 00:49:00,VALID,917.139,VALID,0,VALID,98.8164,VALID,0,VALID,19.1227,VALID,47,VALID,0,
2000-08-23, 00:50:00,VALID,917.139,VALID,0,VALID,98.8558,VALID,0,VALID,19.1259,VALID,88,VALID,0,
2000-08-23, 00:51:00,VALID,917.114,VALID,0,VALID,98.8749,VALID,-0.0509425,VALID,19.1229,VALID,108,VALID,0,
2000-08-23, 00:52:00,VALID,917.115,VALID,0,VALID,98.8927,VALID,-0.0679233,VALID,19.113,VALID,95,VALID,0,
2000-08-23, 00:53:00,VALID,917.116,VALID,0,VALID,98.913,VALID,0,VALID,19.1227,VALID,94,VALID,0,
2000-08-23, 00:54:00,VALID,917.097,VALID,0,VALID,98.9181,VALID,-0.0169808,VALID,19.1065,VALID,148,VALID,0,
2000-08-23, 00:55:00,VALID,917.077,VALID,0,VALID,98.9143,VALID,-0.0339617,VALID,19.1035,VALID,262,VALID,0,
2000-08-23, 00:56:00,VALID,917.08,VALID,0,VALID,98.9385,VALID,0,VALID,19.0834,VALID,270,VALID,0.254012,
2000-08-23, 00:57:00,VALID,917.098,VALID,0,VALID,98.9588,VALID,-0.0169808,VALID,19.0998,VALID,273,VALID,0.0766006,
2000-08-23, 00:58:00,VALID,917.108,VALID,0,VALID,98.9792,VALID,-0.0169808,VALID,19.0869,VALID,258,VALID,0,
2000-08-23, 00:59:00,VALID,917.095,VALID,0,VALID,98.9639,VALID,0,VALID,19.074,VALID,249,VALID,0,
2000-08-23, 01:00:00,VALID,917.094,VALID,0,VALID,98.9766,VALID,-0.0169808,VALID,19.0608,VALID,248,VALID,0,
2000-08-23, 01:01:00,VALID,917.072,VALID,0,VALID,99.0059,VALID,-0.0169808,VALID,19.0541,VALID,171,VALID,0,
2000-08-23, 01:02:00,VALID,917.066,VALID,0,VALID,99.0478,VALID,-0.0169808,VALID,19.0702,VALID,143,VALID,0.411305,
2000-08-23, 01:03:00,VALID,917.036,VALID,0,VALID,99.0555,VALID,-0.0339617,VALID,19.0809,VALID,137,VALID,0.545508,
2000-08-23, 01:04:00,VALID,917.023,VALID,0,VALID,99.0733,VALID,-0.0169808,VALID,19.074,VALID,130,VALID,0.0900493,
2000-08-23, 01:05:00,VALID,917.007,VALID,0,VALID,99.0834,VALID,0,VALID,19.064,VALID,130,VALID,0.0533854,
2000-08-23, 01:06:00,VALID,916.993,VALID,0,VALID,99.086,VALID,-0.0339617,VALID,19.0707,VALID,130,VALID,0.00740132,
2000-08-23, 01:07:00,VALID,916.969,VALID,0,VALID,99.1178,VALID,-0.0509425,VALID,19.0712,VALID,130,VALID,0,
2000-08-23, 01:08:00,VALID,916.945,VALID,0,VALID,99.1267,VALID,-0.0169808,VALID,19.0769,VALID,130,VALID,0,
2000-08-23, 01:09:00,VALID,916.931,VALID,0,VALID,99.1292,VALID,-0.0339617,VALID,19.0804,VALID,130,VALID,0,
2000-08-23, 01:10:00,VALID,916.914,VALID,0,VALID,99.1445,VALID,0.0169808,VALID,19.0938,VALID,130,VALID,0,
2000-08-23, 01:11:00,VALID,916.912,VALID,0,VALID,99.1521,VALID,-0.0169808,VALID,19.0931,VALID,106,VALID,0,
2000-08-23, 01:12:00,VALID,916.907,VALID,0,VALID,99.1686,VALID,-0.0509425,VALID,19.1,VALID,83,VALID,0.521748,
2000-08-23, 01:13:00,VALID,916.892,VALID,0,VALID,99.1419,VALID,0,VALID,19.0799,VALID,90,VALID,1.46419,
2000-08-23, 01:14:00,VALID,916.867,VALID,0,VALID,99.147,VALID,0,VALID,19.0807,VALID,96,VALID,1.23958,
2000-08-23, 01:15:00,VALID,916.852,VALID,0,VALID,99.147,VALID,0,VALID,19.0871,VALID,85,VALID,0.499578,
2000-08-23, 01:16:00,VALID,916.849,VALID,0,VALID,99.1241,VALID,0,VALID,19.0737,VALID,76,VALID,0.547086,
2000-08-23, 01:17:00,VALID,916.823,VALID,0,VALID,99.1012,VALID,-0.0169808,VALID,19.0811,VALID,103,VALID,0.73952,
2000-08-23, 01:18:00,VALID,916.802,VALID,0,VALID,99.0758,VALID,-0.0339617,VALID,19.0675,VALID,101,VALID,1.01731,
2000-08-23, 01:19:00,VALID,916.787,VALID,0,VALID,99.0351,VALID,-0.0169808,VALID,19.0742,VALID,104,VALID,1.18125,
2000-08-23, 01:20:00,VALID,916.759,VALID,0,VALID,98.9766,VALID,-0.0169808,VALID,19.0643,VALID,101,VALID,1.127,
2000-08-23, 01:21:00,VALID,916.735,VALID,0,VALID,98.9296,VALID,-0.0339617,VALID,19.0836,VALID,100,VALID,0.875391,
2000-08-23, 01:22:00,VALID,916.731,VALID,0,VALID,98.866,VALID,-0.0339617,VALID,19.0968,VALID,111,VALID,0.484375,
2000-08-23, 01:23:00,VALID,916.717,VALID,0,VALID,98.7973,VALID,0,VALID,19.0901,VALID,109,VALID,0.166941,
2000-08-23, 01:24:00,VALID,916.735,VALID,0,VALID,98.7452,VALID,0,VALID,19.103,VALID,96,VALID,0.221917,
2000-08-23, 01:25:00,VALID,916.725,VALID,0,VALID,98.7032,VALID,-0.0169808,VALID,19.1092,VALID,93,VALID,0.252734,
2000-08-23, 01:26:00,VALID,916.718,VALID,0,VALID,98.6193,VALID,-0.0339617,VALID,19.1033,VALID,89,VALID,0,
2000-08-23, 01:27:00,VALID,916.69,VALID,0,VALID,98.5494,VALID,0,VALID,19.1025,VALID,79,VALID,0,
2000-08-23, 01:28:00,VALID,916.67,VALID,0,VALID,98.4654,VALID,0.0169808,VALID,19.1294,VALID,79,VALID,0,
2000-08-23, 01:29:00,VALID,916.675,VALID,0,VALID,98.3421,VALID,0.101885,VALID,19.1083,VALID,79,VALID,0,
2000-08-23, 01:30:00,VALID,916.663,VALID,0,VALID,98.2124,VALID,0.0849042,VALID,19.0984,VALID,79,VALID,0,
2000-08-23, 01:31:00,VALID,916.666,VALID,0,VALID,98.0814,VALID,0.101885,VALID,19.1076,VALID,79,VALID,0,
2000-08-23, 01:32:00,VALID,916.652,VALID,0,VALID,97.9949,VALID,0.0849042,VALID,19.1108,VALID,79,VALID,0,
2000-08-23, 01:33:00,VALID,916.651,VALID,0,VALID,97.8462,VALID,0.0849042,VALID,19.1048,VALID,82,VALID,0.12685,
2000-08-23, 01:34:00,VALID,916.653,VALID,0,VALID,97.7088,VALID,0.101885,VALID,19.1277,VALID,85,VALID,0.28125,
2000-08-23, 01:35:00,VALID,916.631,VALID,0,VALID,97.5944,VALID,0.0679233,VALID,19.1406,VALID,89,VALID,0.350761,
2000-08-23, 01:36:00,VALID,916.624,VALID,0,VALID,97.4876,VALID,0.101885,VALID,19.153,VALID,89,VALID,0.277027,
2000-08-23, 01:37:00,VALID,916.597,VALID,0,VALID,97.4876,VALID,0.0679233,VALID,19.1856,VALID,89,VALID,0,
2000-08-23, 01:38:00,VALID,916.602,VALID,0,VALID,97.3808,VALID,0.101885,VALID,19.2047,VALID,89,VALID,0,
2000-08-23, 01:39:00,VALID,916.601,VALID,0,VALID,97.176,VALID,0.101885,VALID,19.2146,VALID,62,VALID,0.136502,
2000-08-23, 01:40:00,VALID,916.598,VALID,0,VALID,96.9255,VALID,0.101885,VALID,19.2246,VALID,22,VALID,0.461149,
2000-08-23, 01:41:00,VALID,916.602,VALID,0,VALID,96.7538,VALID,0.0849042,VALID,19.2469,VALID,51,VALID,0.0491365,
2000-08-23, 01:42:00,VALID,916.574,VALID,0,VALID,96.6966,VALID,0.0679233,VALID,19.273,VALID,81,VALID,0,
2000-08-23, 01:43:00,VALID,916.56,VALID,0,VALID,96.7449,VALID,0.0339617,VALID,19.2733,VALID,85,VALID,0,
2000-08-23, 01:44:00,VALID,916.558,VALID,0,VALID,96.7627,VALID,0.0679233,VALID,19.2569,VALID,65,VALID,0,
2000-08-23, 01:45:00,VALID,916.535,VALID,0,VALID,96.7017,VALID,0.0509425,VALID,19.2407,VALID,60,VALID,0,
2000-08-23, 01:46:00,VALID,916.533,VALID,0,VALID,96.7132,VALID,0.0339617,VALID,19.2313,VALID,57,VALID,0,
2000-08-23, 01:47:00,VALID,916.509,VALID,0,VALID,96.7627,VALID,0.0169808,VALID,19.2251,VALID,57,VALID,0,
2000-08-23, 01:48:00,VALID,916.495,VALID,0,VALID,96.8568,VALID,0,VALID,19.2347,VALID,57,VALID,0,
2000-08-23, 01:49:00,VALID,916.483,VALID,0,VALID,96.8251,VALID,0,VALID,19.2218,VALID,56,VALID,0,
2000-08-23, 01:50:00,VALID,916.491,VALID,0,VALID,96.8912,VALID,0.0679233,VALID,19.2246,VALID,330,VALID,0,
2000-08-23, 01:51:00,VALID,916.496,VALID,0,VALID,97.0756,VALID,0,VALID,19.199,VALID,293,VALID,0,
2000-08-23, 01:52:00,VALID,916.48,VALID,0,VALID,97.2383,VALID,0.0339617,VALID,19.1632,VALID,293,VALID,0,
2000-08-23, 01:53:00,VALID,916.467,VALID,0,VALID,97.438,VALID,0.0169808,VALID,19.1567,VALID,295,VALID,0,
2000-08-23, 01:54:00,VALID,916.465,VALID,0,VALID,97.5422,VALID,0.0169808,VALID,19.1401,VALID,305,VALID,0,
2000-08-23, 01:55:00,VALID,916.458,VALID,0,VALID,97.63,VALID,0.0339617,VALID,19.1341,VALID,305,VALID,0,
2000-08-23, 01:56:00,VALID,916.444,VALID,0,VALID,97.7101,VALID,0.0339617,VALID,19.1309,VALID,305,VALID,0,
2000-08-23, 01:57:00,VALID,916.436,VALID,0,VALID,97.7927,VALID,0.0339617,VALID,19.114,VALID,305,VALID,0,
2000-08-23, 01:58:00,VALID,916.412,VALID,0,VALID,97.9008,VALID,0.0509425,VALID,19.1048,VALID,307,VALID,0,
2000-08-23, 01:59:00,VALID,916.389,VALID,0,VALID,98.0102,VALID,-0.0509425,VALID,19.0936,VALID,301,VALID,0,
2000-08-23, 02:00:00,VALID,916.371,VALID,0,VALID,98.1335,VALID,-0.101885,VALID,19.0737,VALID,307,VALID,0,
2000-08-23, 02:01:00,VALID,916.358,VALID,0,VALID,98.2162,VALID,-0.0339617,VALID,19.0643,VALID,308,VALID,0,
2000-08-23, 02:02:00,VALID,916.33,VALID,0,VALID,98.3077,VALID,0,VALID,19.0479,VALID,308,VALID,0,
2000-08-23, 02:03:00,VALID,916.318,VALID,0,VALID,98.4044,VALID,-0.0339617,VALID,19.0615,VALID,308,VALID,0,
2000-08-23, 02:04:00,VALID,916.302,VALID,0,VALID,98.4718,VALID,-0.0679233,VALID,19.055,VALID,308,VALID,0,
2000-08-23, 02:05:00,VALID,916.309,VALID,0,VALID,98.4947,VALID,-0.0679233,VALID,19.0518,VALID,313,VALID,0,
2000-08-23, 02:06:00,VALID,916.308,VALID,0,VALID,98.5252,VALID,-0.0339617,VALID,19.0488,VALID,318,VALID,0,
2000-08-23, 02:07:00,VALID,916.3,VALID,0,VALID,98.5939,VALID,-0.0509425,VALID,19.0412,VALID,321,VALID,0,
2000-08-23, 02:08:00,VALID,916.311,VALID,0,VALID,98.6447,VALID,-0.0169808,VALID,19.0511,VALID,114,VALID,0,
2000-08-23, 02:09:00,VALID,916.304,VALID,0,VALID,98.6549,VALID,-0.0339617,VALID,19.0513,VALID,121,VALID,0,
2000-08-23, 02:10:00,VALID,916.32,VALID,0,VALID,98.6689,VALID,-0.101885,VALID,19.0483,VALID,121,VALID,0,
2000-08-23, 02:11:00,VALID,916.33,VALID,0,VALID,98.6676,VALID,-0.0849042,VALID,19.0382,VALID,121,VALID,0,
2000-08-23, 02:12:00,VALID,916.326,VALID,0,VALID,98.6854,VALID,-0.0679233,VALID,19.0523,VALID,121,VALID,0,
2000-08-23, 02:13:00,VALID,916.31,VALID,0,VALID,98.6969,VALID,-0.0509425,VALID,19.0456,VALID,121,VALID,0,
2000-08-23, 02:14:00,VALID,916.307,VALID,0,VALID,98.7159,VALID,-0.0509425,VALID,19.0282,VALID,121,VALID,0,
2000-08-23, 02:15:00,VALID,916.294,VALID,0,VALID,98.763,VALID,-0.0849042,VALID,19.0451,VALID,101,VALID,0,
2000-08-23, 02:16:00,VALID,916.302,VALID,0,VALID,98.7757,VALID,-0.0339617,VALID,19.0511,VALID,93,VALID,0,
2000-08-23, 02:17:00,VALID,916.309,VALID,0,VALID,98.7821,VALID,-0.0169808,VALID,19.0682,VALID,93,VALID,0,
2000-08-23, 02:18:00,VALID,916.315,VALID,0,VALID,98.7833,VALID,-0.0849042,VALID,19.055,VALID,93,VALID,0,
2000-08-23, 02:19:00,VALID,916.312,VALID,0,VALID,98.7948,VALID,-0.0339617,VALID,19.058,VALID,93,VALID,0,
2000-08-23, 02:20:00,VALID,916.3,VALID,0,VALID,98.8253,VALID,-0.101885,VALID,19.068,VALID,93,VALID,0,
2000-08-23, 02:21:00,VALID,916.292,VALID,0,VALID,98.8456,VALID,-0.0339617,VALID,19.0807,VALID,93,VALID,0,
2000-08-23, 02:22:00,VALID,916.26,VALID,0,VALID,98.8609,VALID,-0.0679233,VALID,19.0735,VALID,93,VALID,0,
2000-08-23, 02:23:00,VALID,916.238,VALID,0,VALID,98.8596,VALID,-0.0679233,VALID,19.0908,VALID,93,VALID,0,
2000-08-23, 02:24:00,VALID,916.232,VALID,0,VALID,98.8609,VALID,-0.101885,VALID,19.0811,VALID,93,VALID,0,
2000-08-23, 02:25:00,VALID,916.237,VALID,0,VALID,98.8774,VALID,-0.0339617,VALID,19.0675,VALID,93,VALID,0,
2000-08-23, 02:26:00,VALID,916.233,VALID,0,VALID,98.8673,VALID,-0.0169808,VALID,19.0546,VALID,93,VALID,0,
2000-08-23, 02:27:00,VALID,916.237,VALID,0,VALID,98.8711,VALID,-0.0679233,VALID,19.0419,VALID,93,VALID,0,
2000-08-23, 02:28:00,VALID,916.236,VALID,0,VALID,98.8749,VALID,-0.0339617,VALID,19.0521,VALID,95,VALID,0,
2000-08-23, 02:29:00,VALID,916.23,VALID,0,VALID,98.9067,VALID,-0.0849042,VALID,19.0416,VALID,99,VALID,0,
2000-08-23, 02:30:00,VALID,916.205,VALID,0,VALID,98.9105,VALID,-0.0679233,VALID,19.0483,VALID,99,VALID,0,
2000-08-23, 02:31:00,VALID,916.211,VALID,0,VALID,98.9194,VALID,-0.0169808,VALID,19.0454,VALID,99,VALID,0,
2000-08-23, 02:32:00,VALID,916.218,VALID,0,VALID,98.9232,VALID,-0.0849042,VALID,19.0394,VALID,99,VALID,0,
2000-08-23, 02:33:00,VALID,916.221,VALID,0,VALID,98.9372,VALID,-0.0849042,VALID,19.0262,VALID,99,VALID,0,
2000-08-23, 02:34:00,VALID,916.253,VALID,0,VALID,98.9461,VALID,-0.0509425,VALID,19.0128,VALID,99,VALID,0,
2000-08-23, 02:35:00,VALID,916.259,VALID,0,VALID,98.9639,VALID,-0.0509425,VALID,19.0163,VALID,99,VALID,0,
2000-08-23, 02:36:00,VALID,916.269,VALID,0,VALID,98.9842,VALID,-0.0339617,VALID,19.0158,VALID,99,VALID,0,
2000-08-23, 02:37:00,VALID,916.242,VALID,0,VALID,99.0097,VALID,-0.0679233,VALID,19.0126,VALID,99,VALID,0,
2000-08-23, 02:38:00,VALID,916.22,VALID,0,VALID,99.0364,VALID,-0.0679233,VALID,19.0322,VALID,99,VALID,0,
2000-08-23, 02:39:00,VALID,916.213,VALID,0,VALID,99.0491,VALID,0,VALID,19.0324,VALID,99,VALID,0,
2000-08-23, 02:40:00,VALID,916.211,VALID,0,VALID,99.0377,VALID,-0.0169808,VALID,19.0292,VALID,99,VALID,0,
2000-08-23, 02:41:00,VALID,916.205,VALID,0,VALID,99.0555,VALID,0,VALID,19.0024,VALID,99,VALID,0,
2000-08-23, 02:42:00,VALID,916.194,VALID,0,VALID,99.058,VALID,0,VALID,18.9994,VALID,99,VALID,0,
2000-08-23, 02:43:00,VALID,916.184,VALID,0,VALID,99.0605,VALID,-0.0339617,VALID,19.0029,VALID,102,VALID,0,
2000-08-23, 02:44:00,VALID,916.173,VALID,0,VALID,99.058,VALID,0,VALID,18.9927,VALID,90,VALID,0.506168,
2000-08-23, 02:45:00,VALID,916.171,VALID,0,VALID,99.0605,VALID,0.0169808,VALID,18.9733,VALID,88,VALID,0.65984,
2000-08-23, 02:46:00,VALID,916.172,VALID,0,VALID,99.0733,VALID,0.0169808,VALID,18.9669,VALID,94,VALID,0.584961,
2000-08-23, 02:47:00,VALID,916.169,VALID,0,VALID,99.0758,VALID,0,VALID,18.9574,VALID,60,VALID,0.0926649,
2000-08-23, 02:48:00,VALID,916.177,VALID,0,VALID,99.0758,VALID,0,VALID,18.951,VALID,51,VALID,0,
2000-08-23, 02:49:00,VALID,916.178,VALID,0,VALID,99.0771,VALID,0,VALID,18.9445,VALID,65,VALID,0,
2000-08-23, 02:50:00,VALID,916.173,VALID,0,VALID,99.0745,VALID,0,VALID,18.9313,VALID,110,VALID,0,
2000-08-23, 02:51:00,VALID,916.171,VALID,0,VALID,99.0771,VALID,0.0169808,VALID,18.9214,VALID,110,VALID,0,
2000-08-23, 02:52:00,VALID,916.164,VALID,0,VALID,99.0656,VALID,0,VALID,18.9122,VALID,111,VALID,0,
2000-08-23, 02:53:00,VALID,916.165,VALID,0,VALID,99.0415,VALID,-0.0169808,VALID,18.8993,VALID,111,VALID,0,
2000-08-23, 02:54:00,VALID,916.164,VALID,0,VALID,99.0377,VALID,0.0169808,VALID,18.8764,VALID,111,VALID,0,
2000-08-23, 02:55:00,VALID,916.177,VALID,0,VALID,99.0351,VALID,0,VALID,18.8769,VALID,111,VALID,0,
2000-08-23, 02:56:00,VALID,916.186,VALID,0,VALID,98.997,VALID,0,VALID,18.8677,VALID,111,VALID,0,
2000-08-23, 02:57:00,VALID,916.191,VALID,0,VALID,98.9931,VALID,-0.0169808,VALID,18.8446,VALID,111,VALID,0,
2000-08-23, 02:58:00,VALID,916.188,VALID,0,VALID,99.002,VALID,-0.0169808,VALID,18.8414,VALID,111,VALID,0,
2000-08-23, 02:59:00,VALID,916.188,VALID,0,VALID,98.9982,VALID,0,VALID,18.8441,VALID,111,VALID,0,
2000-08-23, 03:00:00,VALID,916.165,VALID,0,VALID,98.9919,VALID,0,VALID,18.8314,VALID,111,VALID,0,
2000-08-23, 03:01:00,VALID,916.161,VALID,0,VALID,98.9703,VALID,0,VALID,18.8423,VALID,111,VALID,0,
2000-08-23, 03:02:00,VALID,916.153,VALID,0,VALID,98.9728,VALID,-0.0339617,VALID,18.8285,VALID,111,VALID,0,
2000-08-23, 03:03:00,VALID,916.153,VALID,0,VALID,98.9779,VALID,-0.0169808,VALID,18.8354,VALID,110,VALID,0,
2000-08-23, 03:04:00,VALID,916.138,VALID,0,VALID,98.9703,VALID,0,VALID,18.8289,VALID,110,VALID,0,
2000-08-23, 03:05:00,VALID,916.128,VALID,0,VALID,98.9461,VALID,-0.0169808,VALID,18.8252,VALID,110,VALID,0,
2000-08-23, 03:06:00,VALID,916.119,VALID,0,VALID,98.9346,VALID,-0.0339617,VALID,18.822,VALID,110,VALID,0,
2000-08-23, 03:07:00,VALID,916.128,VALID,0,VALID,98.9181,VALID,0,VALID,18.816,VALID,104,VALID,0,
2000-08-23, 03:08:00,VALID,916.123,VALID,0,VALID,98.9219,VALID,0,VALID,18.8192,VALID,95,VALID,0,
2000-08-23, 03:09:00,VALID,916.137,VALID,0,VALID,98.9283,VALID,0.0169808,VALID,18.8292,VALID,95,VALID,0,
2000-08-23, 03:10:00,VALID,916.141,VALID,0,VALID,98.8914,VALID,0,VALID,18.8257,VALID,95,VALID,0,
2000-08-23, 03:11:00,VALID,916.141,VALID,0,VALID,98.9029,VALID,0,VALID,18.8255,VALID,95,VALID,0,
2000-08-23, 03:12:00,VALID,916.153,VALID,0,VALID,98.8762,VALID,0,VALID,18.8121,VALID,95,VALID,0,
2000-08-23, 03:13:00,VALID,916.164,VALID,0,VALID,98.7744,VALID,-0.0169808,VALID,18.7772,VALID,95,VALID,0,
2000-08-23, 03:14:00,VALID,916.159,VALID,0,VALID,98.7007,VALID,0,VALID,18.7385,VALID,95,VALID,0,
2000-08-23, 03:15:00,VALID,916.159,VALID,0,VALID,98.6473,VALID,0,VALID,18.7062,VALID,95,VALID,0,
2000-08-23, 03:16:00,VALID,916.153,VALID,0,VALID,98.6066,VALID,0,VALID,18.6612,VALID,95,VALID,0,
2000-08-23, 03:17:00,VALID,916.14,VALID,0,VALID,98.618,VALID,-0.0339617,VALID,18.642,VALID,92,VALID,0,
2000-08-23, 03:18:00,VALID,916.117,VALID,0,VALID,98.6574,VALID,-0.0509425,VALID,18.6326,VALID,94,VALID,0,
2000-08-23, 03:19:00,VALID,916.119,VALID,0,VALID,98.7312,VALID,-0.0169808,VALID,18.6259,VALID,92,VALID,0,
2000-08-23, 03:20:00,VALID,916.101,VALID,0,VALID,98.8011,VALID,-0.0169808,VALID,18.6291,VALID,103,VALID,0,
2000-08-23, 03:21:00,VALID,916.084,VALID,0,VALID,98.8571,VALID,-0.0169808,VALID,18.6515,VALID,103,VALID,0,
2000-08-23, 03:22:00,VALID,916.08,VALID,0,VALID,98.8698,VALID,-0.0339617,VALID,18.6573,VALID,100,VALID,0,
2000-08-23, 03:23:00,VALID,916.101,VALID,0,VALID,98.8673,VALID,0,VALID,18.6607,VALID,98,VALID,0,
2000-08-23, 03:24:00,VALID,916.118,VALID,0,VALID,98.8304,VALID,-0.0339617,VALID,18.6577,VALID,98,VALID,0,
2000-08-23, 03:25:00,VALID,916.127,VALID,0,VALID,98.8189,VALID,-0.0339617,VALID,18.6515,VALID,98,VALID,0,
2000-08-23, 03:26:00,VALID,916.144,VALID,0,VALID,98.7719,VALID,-0.0679233,VALID,18.642,VALID,96,VALID,0,
2000-08-23, 03:27:00,VALID,916.134,VALID,0,VALID,98.777,VALID,-0.0509425,VALID,18.6455,VALID,81,VALID,0,
2000-08-23, 03:28:00,VALID,916.123,VALID,0,VALID,98.81,VALID,-0.0339617,VALID,18.6642,VALID,76,VALID,0,
2000-08-23, 03:29:00,VALID,916.139,VALID,0,VALID,98.7706,VALID,0.0509425,VALID,18.6536,VALID,83,VALID,0,
2000-08-23, 03:30:00,VALID,916.143,VALID,0,VALID,98.7261,VALID,0.0679233,VALID,18.6372,VALID,83,VALID,0,
2000-08-23, 03:31:00,VALID,916.156,VALID,0,VALID,98.7007,VALID,0.0679233,VALID,18.6307,VALID,83,VALID,0,
2000-08-23, 03:32:00,VALID,916.165,VALID,0,VALID,98.707,VALID,0.0509425,VALID,18.6342,VALID,83,VALID,0,
2000-08-23, 03:33:00,VALID,916.162,VALID,0,VALID,98.693,VALID,0.0679233,VALID,18.6277,VALID,83,VALID,0,
2000-08-23, 03:34:00,VALID,916.153,VALID,0,VALID,98.6511,VALID,0.0509425,VALID,18.6083,VALID,83,VALID,0,
2000-08-23, 03:35:00,VALID,916.163,VALID,0,VALID,98.7477,VALID,0.0509425,VALID,18.6575,VALID,61,VALID,0,
2000-08-23, 03:36:00,VALID,916.16,VALID,0,VALID,98.8177,VALID,0.0339617,VALID,18.6762,VALID,59,VALID,0,
2000-08-23, 03:37:00,VALID,916.167,VALID,0,VALID,98.7986,VALID,0.101885,VALID,18.6824,VALID,83,VALID,0,
2000-08-23, 03:38:00,VALID,916.157,VALID,0,VALID,98.7668,VALID,0.101885,VALID,18.6859,VALID,83,VALID,0,
2000-08-23, 03:39:00,VALID,916.128,VALID,0,VALID,98.7617,VALID,0.0679233,VALID,18.6824,VALID,83,VALID,0,
2000-08-23, 03:40:00,VALID,916.106,VALID,0,VALID,98.7503,VALID,0.0679233,VALID,18.6958,VALID,75,VALID,0,
2000-08-23, 03:41:00,VALID,916.103,VALID,0,VALID,98.7032,VALID,0.0679233,VALID,18.6955,VALID,26,VALID,0,
2000-08-23, 03:42:00,VALID,916.097,VALID,0,VALID,98.688,VALID,0.0509425,VALID,18.7152,VALID,287,VALID,0,
2000-08-23, 03:43:00,VALID,916.112,VALID,0,VALID,98.6791,VALID,0.0339617,VALID,18.7216,VALID,275,VALID,0,
2000-08-23, 03:44:00,VALID,916.104,VALID,0,VALID,98.6854,VALID,-0.0849042,VALID,18.7327,VALID,275,VALID,0,
2000-08-23, 03:45:00,VALID,916.085,VALID,0,VALID,98.7032,VALID,-0.101885,VALID,18.7422,VALID,32,VALID,0,